Station Historical Data
Daily Summary for February 5, 2017 Units:  English    Metric   Both
« Previous Day
Next Day »
Daily Weekly Monthly Yearly Custom
  High: Low: Average:
Temperature: 33.5 °F 25.1 °F 30 °F
Dew Point: 27.8 °F 11.0 °F 20.9 °F
Humidity: 90% 49% 69%
Wind Speed: 16.0mph 1.0mph 6.7mph
Wind Gust: 27.0mph - -
Wind- - WSW
Pressure: 30.10 in 29.81 in -
Precipitation: 0.00 in    
Historical Graphs
 
 
Tabular Data for February 5, 2017
Time Temperature Dew Point Pressure Wind Wind Speed Wind Gust Humidity Rainfall Rate (Hourly)
00:04 25.4 °F 12.3 °F 30.10 in SSW 1.0 mph 4.0 mph 57% 0.00 in
00:09 25.4 °F 12.3 °F 30.10 in SSW 2.0 mph 4.0 mph 57% 0.00 in
00:14 25.4 °F 12.3 °F 30.09 in SSW 2.0 mph 4.0 mph 57% 0.00 in
00:19 25.5 °F 12.4 °F 30.09 in SSW 2.0 mph 5.0 mph 57% 0.00 in
00:24 25.6 °F 12.5 °F 30.09 in SSW 2.0 mph 5.0 mph 57% 0.00 in
00:29 25.9 °F 12.7 °F 30.09 in SSW 2.0 mph 6.0 mph 57% 0.00 in
00:34 26.0 °F 12.4 °F 30.08 in SSW 2.0 mph 5.0 mph 56% 0.00 in
00:39 26.0 °F 12.8 °F 30.08 in SSW 2.0 mph 5.0 mph 57% 0.00 in
00:44 25.9 °F 12.7 °F 30.07 in SSW 2.0 mph 6.0 mph 57% 0.00 in
00:49 25.8 °F 12.6 °F 30.07 in SSW 2.0 mph 6.0 mph 57% 0.00 in
00:54 25.6 °F 12.9 °F 30.06 in South 2.0 mph 4.0 mph 58% 0.00 in
00:59 25.5 °F 12.8 °F 30.06 in South 1.0 mph 3.0 mph 58% 0.00 in
01:05 25.3 °F 12.6 °F 30.06 in South 1.0 mph 3.0 mph 58% 0.00 in
01:10 25.1 °F 12.8 °F 30.05 in South 2.0 mph 3.0 mph 59% 0.00 in
01:15 25.3 °F 12.6 °F 30.04 in South 2.0 mph 5.0 mph 58% 0.00 in
01:20 25.4 °F 13.1 °F 30.04 in South 3.0 mph 5.0 mph 59% 0.00 in
01:25 25.6 °F 12.5 °F 30.04 in SSE 3.0 mph 7.0 mph 57% 0.00 in
01:30 25.7 °F 12.6 °F 30.03 in South 3.0 mph 5.0 mph 57% 0.00 in
01:35 25.7 °F 12.2 °F 30.03 in SSE 4.0 mph 5.0 mph 56% 0.00 in
01:40 25.8 °F 11.8 °F 30.03 in South 4.0 mph 8.0 mph 55% 0.00 in
01:45 25.8 °F 12.2 °F 30.03 in South 4.0 mph 8.0 mph 56% 0.00 in
01:50 26.0 °F 12.0 °F 30.02 in SSW 4.0 mph 8.0 mph 55% 0.00 in
01:55 26.0 °F 12.0 °F 30.02 in SSW 2.0 mph 7.0 mph 55% 0.00 in
02:00 26.0 °F 12.0 °F 30.02 in SSW 2.0 mph 5.0 mph 55% 0.00 in
02:05 25.8 °F 12.2 °F 30.02 in SSW 2.0 mph 4.0 mph 56% 0.00 in
02:10 25.7 °F 12.2 °F 30.01 in SSW 3.0 mph 6.0 mph 56% 0.00 in
02:15 25.8 °F 11.8 °F 30.01 in SSW 3.0 mph 6.0 mph 55% 0.00 in
02:20 25.9 °F 11.9 °F 30.01 in SW 5.0 mph 7.0 mph 55% 0.00 in
02:30 25.8 °F 11.8 °F 30.01 in SSW 3.0 mph 8.0 mph 55% 0.00 in
02:35 25.9 °F 12.3 °F 30.00 in South 2.0 mph 6.0 mph 56% 0.00 in
02:40 26.1 °F 12.1 °F 30.00 in SSW 2.0 mph 8.0 mph 55% 0.00 in
02:45 26.1 °F 12.1 °F 30.00 in South 4.0 mph 8.0 mph 55% 0.00 in
02:50 26.3 °F 11.9 °F 30.00 in South 4.0 mph 9.0 mph 54% 0.00 in
02:55 26.4 °F 12.0 °F 30.00 in SSW 3.0 mph 7.0 mph 54% 0.00 in
03:00 26.5 °F 11.7 °F 29.99 in SSW 3.0 mph 8.0 mph 53% 0.00 in
03:05 26.5 °F 12.1 °F 29.99 in South 4.0 mph 7.0 mph 54% 0.00 in
03:10 26.6 °F 11.7 °F 29.98 in South 7.0 mph 9.0 mph 53% 0.00 in
03:15 26.8 °F 11.9 °F 29.98 in SSW 5.0 mph 10.0 mph 53% 0.00 in
03:20 26.9 °F 11.6 °F 29.98 in SSW 4.0 mph 10.0 mph 52% 0.00 in
03:25 27.0 °F 11.7 °F 29.98 in South 3.0 mph 9.0 mph 52% 0.00 in
03:30 27.2 °F 11.4 °F 29.98 in SSW 4.0 mph 9.0 mph 51% 0.00 in
03:35 27.3 °F 11.5 °F 29.97 in SSW 4.0 mph 7.0 mph 51% 0.00 in
03:40 27.4 °F 11.2 °F 29.97 in SW 6.0 mph 10.0 mph 50% 0.00 in
03:45 27.7 °F 11.0 °F 29.97 in SW 7.0 mph 10.0 mph 49% 0.00 in
03:50 27.7 °F 11.0 °F 29.96 in SW 5.0 mph 11.0 mph 49% 0.00 in
03:55 27.8 °F 11.1 °F 29.96 in SW 5.0 mph 11.0 mph 49% 0.00 in
04:00 27.7 °F 11.0 °F 29.96 in SW 6.0 mph 12.0 mph 49% 0.00 in
04:04 27.4 °F 11.2 °F 29.96 in SW 2.0 mph 11.0 mph 50% 0.00 in
04:10 27.3 °F 11.1 °F 29.96 in SSW 4.0 mph 10.0 mph 50% 0.00 in
04:15 27.1 °F 11.3 °F 29.96 in West 5.0 mph 7.0 mph 51% 0.00 in
04:20 26.9 °F 11.6 °F 29.95 in South 3.0 mph 9.0 mph 52% 0.00 in
04:25 27.0 °F 11.7 °F 29.95 in SW 4.0 mph 9.0 mph 52% 0.00 in
04:30 27.0 °F 11.7 °F 29.95 in SSW 4.0 mph 8.0 mph 52% 0.00 in
04:35 27.0 °F 12.1 °F 29.94 in SSW 6.0 mph 8.0 mph 53% 0.00 in
04:40 26.9 °F 12.0 °F 29.94 in SW 8.0 mph 8.0 mph 53% 0.00 in
04:45 26.7 °F 11.8 °F 29.94 in SW 2.0 mph 7.0 mph 53% 0.00 in
04:50 26.6 °F 12.2 °F 29.94 in SW 3.0 mph 8.0 mph 54% 0.00 in
04:55 26.6 °F 12.2 °F 29.93 in SSW 3.0 mph 9.0 mph 54% 0.00 in
05:00 26.6 °F 12.2 °F 29.93 in SSW 4.0 mph 9.0 mph 54% 0.00 in
05:05 26.7 °F 12.3 °F 29.93 in SSW 4.0 mph 10.0 mph 54% 0.00 in
05:10 26.7 °F 12.7 °F 29.93 in SW 4.0 mph 10.0 mph 55% 0.00 in
05:14 26.8 °F 12.4 °F 29.93 in SSW 3.0 mph 8.0 mph 54% 0.00 in
05:19 26.9 °F 12.9 °F 29.93 in SSW 4.0 mph 9.0 mph 55% 0.00 in
05:24 27.1 °F 12.6 °F 29.93 in SSW 4.0 mph 9.0 mph 54% 0.00 in
05:30 27.0 °F 12.5 °F 29.93 in SSW 4.0 mph 8.0 mph 54% 0.00 in
05:35 27.1 °F 12.2 °F 29.92 in SSW 4.0 mph 8.0 mph 53% 0.00 in
05:40 27.2 °F 12.7 °F 29.92 in SSW 4.0 mph 8.0 mph 54% 0.00 in
05:45 27.2 °F 12.3 °F 29.92 in SW 4.0 mph 8.0 mph 53% 0.00 in
05:50 27.3 °F 12.4 °F 29.91 in SSE 6.0 mph 11.0 mph 53% 0.00 in
05:55 27.4 °F 12.9 °F 29.91 in SSW 5.0 mph 7.0 mph 54% 0.00 in
05:59 27.4 °F 12.5 °F 29.91 in SSW 4.0 mph 7.0 mph 53% 0.00 in
06:05 27.4 °F 12.5 °F 29.91 in SSW 4.0 mph 8.0 mph 53% 0.00 in
06:10 27.4 °F 12.9 °F 29.91 in SSW 4.0 mph 9.0 mph 54% 0.00 in
06:14 27.5 °F 12.6 °F 29.90 in SSW 3.0 mph 11.0 mph 53% 0.00 in
06:19 27.5 °F 13.0 °F 29.90 in SSW 6.0 mph 8.0 mph 54% 0.00 in
06:24 27.5 °F 13.0 °F 29.90 in SSE 4.0 mph 8.0 mph 54% 0.00 in
06:29 27.6 °F 13.1 °F 29.90 in SSW 4.0 mph 8.0 mph 54% 0.00 in
06:34 27.7 °F 13.2 °F 29.89 in SSW 4.0 mph 9.0 mph 54% 0.00 in
06:40 27.8 °F 13.3 °F 29.90 in SSW 4.0 mph 9.0 mph 54% 0.00 in
06:45 27.9 °F 13.4 °F 29.89 in SSW 4.0 mph 7.0 mph 54% 0.00 in
06:50 28.0 °F 13.5 °F 29.89 in SSW 3.0 mph 8.0 mph 54% 0.00 in
06:55 28.1 °F 13.6 °F 29.89 in SSW 2.0 mph 9.0 mph 54% 0.00 in
07:00 28.1 °F 14.0 °F 29.89 in WSW 4.0 mph 8.0 mph 55% 0.00 in
07:04 28.2 °F 14.1 °F 29.89 in SSW 3.0 mph 8.0 mph 55% 0.00 in
07:09 28.3 °F 14.2 °F 29.88 in SSE 5.0 mph 13.0 mph 55% 0.00 in
07:14 28.7 °F 14.6 °F 29.88 in WSW 5.0 mph 9.0 mph 55% 0.00 in
07:19 28.9 °F 15.2 °F 29.88 in SSW 7.0 mph 14.0 mph 56% 0.00 in
07:24 29.4 °F 15.2 °F 29.88 in South 8.0 mph 12.0 mph 55% 0.00 in
07:30 29.8 °F 16.8 °F 29.87 in South 5.0 mph 18.0 mph 58% 0.00 in
07:34 30.2 °F 18.0 °F 29.87 in SW 7.0 mph 18.0 mph 60% 0.00 in
07:39 30.5 °F 18.3 °F 29.87 in SW 6.0 mph 15.0 mph 60% 0.00 in
07:45 30.7 °F 18.8 °F 29.87 in WSW 8.0 mph 22.0 mph 61% 0.00 in
07:50 30.7 °F 20.7 °F 29.87 in WSW 11.0 mph 22.0 mph 66% 0.00 in
07:55 30.5 °F 21.2 °F 29.88 in WSW 11.0 mph 22.0 mph 68% 0.00 in
08:00 30.1 °F 21.8 °F 29.88 in WSW 9.0 mph 22.0 mph 71% 0.00 in
08:05 29.8 °F 22.5 °F 29.87 in SW 6.0 mph 21.0 mph 74% 0.00 in
08:09 29.6 °F 22.6 °F 29.86 in SW 8.0 mph 14.0 mph 75% 0.00 in
08:14 29.7 °F 22.4 °F 29.86 in SW 8.0 mph 12.0 mph 74% 0.00 in
08:19 30.0 °F 22.1 °F 29.86 in WSW 4.0 mph 8.0 mph 72% 0.00 in
08:24 30.5 °F 21.9 °F 29.86 in SW 6.0 mph 11.0 mph 70% 0.00 in
08:30 31.1 °F 21.8 °F 29.86 in SW 6.0 mph 11.0 mph 68% 0.00 in
08:35 31.6 °F 21.9 °F 29.86 in WSW 6.0 mph 14.0 mph 67% 0.00 in
08:39 31.9 °F 21.5 °F 29.86 in WSW 7.0 mph 19.0 mph 65% 0.00 in
08:44 32.2 °F 21.7 °F 29.86 in WSW 8.0 mph 19.0 mph 65% 0.00 in
08:50 32.2 °F 21.7 °F 29.86 in WSW 9.0 mph 22.0 mph 65% 0.00 in
08:55 32.0 °F 20.4 °F 29.86 in WSW 11.0 mph 22.0 mph 62% 0.00 in
09:00 31.7 °F 20.2 °F 29.86 in South 9.0 mph 21.0 mph 62% 0.00 in
09:05 31.4 °F 20.6 °F 29.86 in WSW 15.0 mph 27.0 mph 64% 0.00 in
09:09 31.3 °F 20.9 °F 29.87 in SW 10.0 mph 27.0 mph 65% 0.00 in
09:14 31.0 °F 22.4 °F 29.86 in SW 12.0 mph 22.0 mph 70% 0.00 in
09:19 30.7 °F 23.4 °F 29.86 in SW 11.0 mph 22.0 mph 74% 0.00 in
09:25 30.3 °F 23.6 °F 29.86 in SW 9.0 mph 17.0 mph 76% 0.00 in
09:29 29.9 °F 23.6 °F 29.86 in SSW 10.0 mph 17.0 mph 77% 0.00 in
09:34 29.9 °F 23.9 °F 29.86 in WSW 7.0 mph 17.0 mph 78% 0.00 in
09:39 29.8 °F 24.1 °F 29.86 in West 6.0 mph 13.0 mph 79% 0.00 in
09:44 29.8 °F 24.7 °F 29.86 in SW 7.0 mph 13.0 mph 81% 0.00 in
09:49 29.8 °F 25.3 °F 29.86 in SW 7.0 mph 14.0 mph 83% 0.00 in
09:54 30.0 °F 26.0 °F 29.86 in WSW 8.0 mph 18.0 mph 85% 0.00 in
10:00 30.1 °F 26.1 °F 29.86 in SW 8.0 mph 16.0 mph 85% 0.00 in
10:05 30.0 °F 26.0 °F 29.86 in WSW 9.0 mph 16.0 mph 85% 0.00 in
10:10 29.6 °F 25.9 °F 29.87 in South 4.0 mph 19.0 mph 86% 0.00 in
10:15 29.1 °F 25.7 °F 29.87 in SW 9.0 mph 21.0 mph 87% 0.00 in
10:19 28.9 °F 25.8 °F 29.86 in SW 10.0 mph 21.0 mph 88% 0.00 in
10:24 29.0 °F 25.9 °F 29.86 in West 9.0 mph 16.0 mph 88% 0.00 in
10:29 29.3 °F 26.5 °F 29.86 in WSW 10.0 mph 17.0 mph 89% 0.00 in
10:34 29.5 °F 26.7 °F 29.86 in WSW 9.0 mph 17.0 mph 89% 0.00 in
10:39 29.5 °F 26.7 °F 29.86 in SW 9.0 mph 15.0 mph 89% 0.00 in
10:44 29.4 °F 26.6 °F 29.86 in WSW 6.0 mph 11.0 mph 89% 0.00 in
10:49 29.5 °F 26.7 °F 29.85 in WSW 7.0 mph 15.0 mph 89% 0.00 in
10:54 29.6 °F 26.8 °F 29.86 in WSW 8.0 mph 15.0 mph 89% 0.00 in
10:59 29.7 °F 26.9 °F 29.85 in SW 8.0 mph 18.0 mph 89% 0.00 in
11:04 29.8 °F 27.2 °F 29.85 in SW 9.0 mph 20.0 mph 90% 0.00 in
11:10 29.7 °F 26.9 °F 29.85 in WSW 3.0 mph 16.0 mph 89% 0.00 in
11:15 29.2 °F 26.4 °F 29.85 in SSW 6.0 mph 15.0 mph 89% 0.00 in
11:20 29.0 °F 26.2 °F 29.85 in SW 5.0 mph 13.0 mph 89% 0.00 in
11:24 28.9 °F 26.1 °F 29.85 in SW 7.0 mph 19.0 mph 89% 0.00 in
11:29 28.8 °F 26.0 °F 29.85 in SW 8.0 mph 21.0 mph 89% 0.00 in
11:34 28.8 °F 26.0 °F 29.85 in SW 9.0 mph 21.0 mph 89% 0.00 in
11:39 29.0 °F 26.2 °F 29.85 in West 11.0 mph 14.0 mph 89% 0.00 in
11:44 29.1 °F 26.3 °F 29.85 in SW 11.0 mph 17.0 mph 89% 0.00 in
11:49 29.2 °F 26.4 °F 29.85 in West 13.0 mph 17.0 mph 89% 0.00 in
11:54 29.5 °F 26.4 °F 29.85 in WSW 10.0 mph 17.0 mph 88% 0.00 in
11:59 30.0 °F 26.9 °F 29.85 in WSW 9.0 mph 16.0 mph 88% 0.00 in
12:04 30.7 °F 27.6 °F 29.85 in SW 9.0 mph 21.0 mph 88% 0.00 in
12:09 31.2 °F 27.8 °F 29.85 in West 9.0 mph 24.0 mph 87% 0.00 in
12:14 31.5 °F 27.5 °F 29.85 in West 9.0 mph 25.0 mph 85% 0.00 in
12:20 31.6 °F 27.6 °F 29.84 in SSW 8.0 mph 18.0 mph 85% 0.00 in
12:25 31.7 °F 27.4 °F 29.84 in West 15.0 mph 18.0 mph 84% 0.00 in
12:29 31.7 °F 27.4 °F 29.85 in WSW 10.0 mph 20.0 mph 84% 0.00 in
12:34 31.7 °F 27.4 °F 29.84 in SW 7.0 mph 19.0 mph 84% 0.00 in
12:39 31.7 °F 27.4 °F 29.84 in WSW 7.0 mph 17.0 mph 84% 0.00 in
12:44 31.7 °F 27.4 °F 29.83 in WSW 9.0 mph 21.0 mph 84% 0.00 in
12:49 31.8 °F 27.5 °F 29.83 in West 6.0 mph 16.0 mph 84% 0.00 in
12:54 31.7 °F 27.4 °F 29.83 in WSW 7.0 mph 19.0 mph 84% 0.00 in
12:59 31.8 °F 27.2 °F 29.83 in WSW 13.0 mph 17.0 mph 83% 0.00 in
13:04 31.9 °F 27.3 °F 29.83 in WSW 9.0 mph 17.0 mph 83% 0.00 in
13:09 31.8 °F 27.5 °F 29.83 in WSW 10.0 mph 19.0 mph 84% 0.00 in
13:14 31.9 °F 27.6 °F 29.82 in WSW 11.0 mph 19.0 mph 84% 0.00 in
13:19 31.9 °F 27.6 °F 29.82 in WSW 10.0 mph 19.0 mph 84% 0.00 in
13:25 31.9 °F 27.6 °F 29.82 in WSW 10.0 mph 21.0 mph 84% 0.00 in
13:30 32.0 °F 27.7 °F 29.82 in WSW 9.0 mph 21.0 mph 84% 0.00 in
13:34 32.1 °F 27.8 °F 29.82 in WSW 8.0 mph 16.0 mph 84% 0.00 in
13:39 32.1 °F 27.8 °F 29.81 in SW 8.0 mph 18.0 mph 84% 0.00 in
13:44 32.2 °F 27.6 °F 29.81 in SSW 7.0 mph 21.0 mph 83% 0.00 in
13:49 32.3 °F 27.4 °F 29.81 in SW 10.0 mph 16.0 mph 82% 0.00 in
13:54 32.3 °F 27.1 °F 29.82 in WSW 15.0 mph 19.0 mph 81% 0.00 in
13:59 32.4 °F 27.2 °F 29.81 in SSW 8.0 mph 19.0 mph 81% 0.00 in
14:04 32.5 °F 27.0 °F 29.81 in WSW 13.0 mph 17.0 mph 80% 0.00 in
14:09 32.5 °F 27.0 °F 29.81 in SW 11.0 mph 20.0 mph 80% 0.00 in
14:14 32.7 °F 26.9 °F 29.81 in WSW 11.0 mph 20.0 mph 79% 0.00 in
14:19 32.8 °F 26.7 °F 29.81 in WSW 11.0 mph 21.0 mph 78% 0.00 in
14:24 32.8 °F 26.7 °F 29.81 in WSW 10.0 mph 21.0 mph 78% 0.00 in
14:29 33.0 °F 26.3 °F 29.81 in WSW 10.0 mph 22.0 mph 76% 0.00 in
14:35 33.1 °F 26.4 °F 29.81 in WSW 11.0 mph 22.0 mph 76% 0.00 in
14:39 33.2 °F 26.5 °F 29.81 in WSW 9.0 mph 18.0 mph 76% 0.00 in
14:44 33.2 °F 26.1 °F 29.82 in WSW 10.0 mph 19.0 mph 75% 0.00 in
14:49 33.4 °F 26.3 °F 29.82 in SSW 10.0 mph 22.0 mph 75% 0.00 in
14:54 33.4 °F 26.6 °F 29.82 in SW 9.0 mph 20.0 mph 76% 0.00 in
14:59 33.5 °F 26.4 °F 29.82 in WSW 16.0 mph 18.0 mph 75% 0.00 in
15:04 33.5 °F 26.7 °F 29.82 in WSW 14.0 mph 22.0 mph 76% 0.00 in
15:09 33.5 °F 26.7 °F 29.82 in WSW 10.0 mph 17.0 mph 76% 0.00 in
15:14 33.4 °F 26.6 °F 29.82 in WSW 11.0 mph 18.0 mph 76% 0.00 in
15:19 33.4 °F 26.3 °F 29.83 in WSW 11.0 mph 23.0 mph 75% 0.00 in
15:24 33.4 °F 26.6 °F 29.83 in WSW 10.0 mph 23.0 mph 76% 0.00 in
15:29 33.4 °F 26.6 °F 29.83 in WSW 10.0 mph 19.0 mph 76% 0.00 in
15:34 33.3 °F 26.5 °F 29.83 in WSW 10.0 mph 20.0 mph 76% 0.00 in
15:40 33.3 °F 26.9 °F 29.83 in WSW 11.0 mph 27.0 mph 77% 0.01 in
15:44 33.2 °F 26.8 °F 29.83 in West 12.0 mph 20.0 mph 77% 0.01 in
15:49 33.1 °F 27.0 °F 29.84 in West 6.0 mph 18.0 mph 78% 0.01 in
15:54 33.1 °F 27.3 °F 29.84 in West 4.0 mph 18.0 mph 79% 0.01 in
15:59 33.0 °F 27.2 °F 29.85 in WSW 12.0 mph 20.0 mph 79% 0.01 in
16:04 33.0 °F 27.2 °F 29.85 in WSW 11.0 mph 17.0 mph 79% 0.01 in
16:09 33.0 °F 27.2 °F 29.86 in SW 6.0 mph 21.0 mph 79% 0.01 in
16:14 33.0 °F 27.2 °F 29.86 in West 5.0 mph 17.0 mph 79% 0.01 in
16:19 33.0 °F 27.2 °F 29.86 in West 8.0 mph 17.0 mph 79% 0.01 in
16:24 33.0 °F 27.2 °F 29.87 in WSW 9.0 mph 20.0 mph 79% 0.01 in
16:29 33.0 °F 27.2 °F 29.87 in WSW 9.0 mph 20.0 mph 79% 0.01 in
16:34 33.0 °F 26.9 °F 29.87 in WSW 8.0 mph 20.0 mph 78% 0.01 in
16:39 33.0 °F 26.9 °F 29.87 in WSW 8.0 mph 17.0 mph 78% 0.00 in
16:44 33.0 °F 27.2 °F 29.88 in WSW 8.0 mph 17.0 mph 79% 0.00 in
16:49 33.0 °F 26.9 °F 29.88 in WSW 5.0 mph 14.0 mph 78% 0.00 in
16:54 33.0 °F 26.9 °F 29.89 in WNW 14.0 mph 14.0 mph 78% 0.00 in
16:59 33.0 °F 26.9 °F 29.89 in West 9.0 mph 17.0 mph 78% 0.00 in
17:04 33.0 °F 26.6 °F 29.89 in West 4.0 mph 12.0 mph 77% 0.00 in
17:09 32.9 °F 26.5 °F 29.89 in West 6.0 mph 11.0 mph 77% 0.00 in
17:14 32.9 °F 26.5 °F 29.90 in WSW 5.0 mph 11.0 mph 77% 0.00 in
17:19 32.9 °F 26.2 °F 29.90 in West 6.0 mph 13.0 mph 76% 0.00 in
17:24 33.0 °F 26.3 °F 29.90 in WSW 7.0 mph 14.0 mph 76% 0.00 in
17:29 32.8 °F 26.4 °F 29.90 in West 6.0 mph 14.0 mph 77% 0.00 in
17:34 32.8 °F 26.1 °F 29.91 in West 6.0 mph 13.0 mph 76% 0.00 in
17:39 32.8 °F 25.7 °F 29.91 in WSW 7.0 mph 14.0 mph 75% 0.00 in
17:44 32.9 °F 25.8 °F 29.91 in West 7.0 mph 15.0 mph 75% 0.00 in
17:49 32.9 °F 25.8 °F 29.92 in West 7.0 mph 15.0 mph 75% 0.00 in
17:54 32.8 °F 25.7 °F 29.92 in WNW 6.0 mph 13.0 mph 75% 0.00 in
17:59 32.8 °F 25.7 °F 29.92 in SSW 9.0 mph 15.0 mph 75% 0.00 in
18:04 32.9 °F 25.8 °F 29.93 in West 10.0 mph 14.0 mph 75% 0.00 in
18:09 32.8 °F 26.1 °F 29.93 in West 8.0 mph 13.0 mph 76% 0.00 in
18:14 32.8 °F 26.1 °F 29.94 in WSW 7.0 mph 14.0 mph 76% 0.00 in
18:19 32.7 °F 26.0 °F 29.94 in WSW 5.0 mph 14.0 mph 76% 0.00 in
18:24 32.7 °F 26.0 °F 29.94 in West 6.0 mph 14.0 mph 76% 0.00 in
18:29 32.7 °F 26.0 °F 29.95 in West 7.0 mph 14.0 mph 76% 0.00 in
18:34 32.8 °F 26.1 °F 29.95 in West 8.0 mph 19.0 mph 76% 0.00 in
18:39 32.7 °F 26.0 °F 29.95 in West 8.0 mph 19.0 mph 76% 0.00 in
18:44 32.7 °F 26.0 °F 29.96 in West 7.0 mph 14.0 mph 76% 0.00 in
18:49 32.7 °F 26.0 °F 29.96 in WSW 7.0 mph 17.0 mph 76% 0.00 in
18:54 32.8 °F 25.7 °F 29.96 in West 8.0 mph 24.0 mph 75% 0.00 in
18:59 32.8 °F 25.7 °F 29.96 in West 4.0 mph 15.0 mph 75% 0.00 in
19:04 32.8 °F 25.4 °F 29.97 in West 7.0 mph 15.0 mph 74% 0.00 in
19:09 32.8 °F 25.4 °F 29.97 in WSW 7.0 mph 13.0 mph 74% 0.00 in
19:14 32.9 °F 25.2 °F 29.97 in SW 5.0 mph 12.0 mph 73% 0.00 in
19:19 33.0 °F 25.3 °F 29.97 in WSW 9.0 mph 11.0 mph 73% 0.00 in
19:24 33.0 °F 25.3 °F 29.97 in WSW 5.0 mph 13.0 mph 73% 0.00 in
19:29 33.0 °F 25.3 °F 29.97 in West 11.0 mph 16.0 mph 73% 0.00 in
19:34 32.9 °F 25.5 °F 29.97 in West 7.0 mph 17.0 mph 74% 0.00 in
19:39 32.9 °F 25.5 °F 29.98 in WSW 9.0 mph 18.0 mph 74% 0.00 in
19:44 32.9 °F 25.5 °F 29.98 in WSW 9.0 mph 18.0 mph 74% 0.00 in
19:49 32.8 °F 25.7 °F 29.99 in WSW 8.0 mph 16.0 mph 75% 0.00 in
19:54 32.8 °F 25.7 °F 29.99 in WSW 8.0 mph 16.0 mph 75% 0.00 in
19:59 32.7 °F 25.6 °F 29.99 in WSW 8.0 mph 15.0 mph 75% 0.00 in
20:04 32.6 °F 25.9 °F 29.99 in West 4.0 mph 11.0 mph 76% 0.00 in
20:09 32.5 °F 25.8 °F 29.99 in WSW 6.0 mph 17.0 mph 76% 0.00 in
20:14 32.5 °F 25.8 °F 29.99 in West 6.0 mph 12.0 mph 76% 0.00 in
20:19 32.5 °F 25.8 °F 29.99 in West 6.0 mph 15.0 mph 76% 0.00 in
20:24 32.4 °F 25.7 °F 30.00 in West 5.0 mph 19.0 mph 76% 0.00 in
20:29 32.4 °F 26.0 °F 30.00 in West 7.0 mph 19.0 mph 77% 0.00 in
20:34 32.3 °F 25.9 °F 30.01 in NW 7.0 mph 13.0 mph 77% 0.00 in
20:39 32.2 °F 25.8 °F 30.01 in West 8.0 mph 16.0 mph 77% 0.00 in
20:44 32.0 °F 25.9 °F 30.01 in WNW 8.0 mph 16.0 mph 78% 0.00 in
20:49 31.8 °F 25.4 °F 30.01 in WNW 7.0 mph 16.0 mph 77% 0.00 in
20:54 31.6 °F 24.9 °F 30.02 in WNW 7.0 mph 16.0 mph 76% 0.00 in
20:59 31.4 °F 24.1 °F 30.02 in WNW 7.0 mph 15.0 mph 74% 0.00 in
21:04 31.3 °F 23.3 °F 30.02 in NW 9.0 mph 14.0 mph 72% 0.00 in
21:09 31.1 °F 22.8 °F 30.03 in WNW 5.0 mph 20.0 mph 71% 0.00 in
21:14 31.0 °F 22.7 °F 30.03 in WNW 9.0 mph 20.0 mph 71% 0.00 in
21:19 30.8 °F 22.5 °F 30.03 in WNW 8.0 mph 19.0 mph 71% 0.00 in
21:24 30.7 °F 21.7 °F 30.03 in WNW 8.0 mph 15.0 mph 69% 0.00 in
21:29 30.6 °F 21.3 °F 30.04 in NW 6.0 mph 12.0 mph 68% 0.00 in
21:34 30.5 °F 21.2 °F 30.04 in WNW 11.0 mph 17.0 mph 68% 0.00 in
21:39 30.4 °F 21.1 °F 30.04 in NW 6.0 mph 14.0 mph 68% 0.00 in
21:44 30.4 °F 21.1 °F 30.04 in WNW 7.0 mph 14.0 mph 68% 0.00 in
21:49 30.3 °F 21.0 °F 30.04 in WNW 8.0 mph 15.0 mph 68% 0.00 in
21:54 30.3 °F 20.6 °F 30.04 in West 10.0 mph 15.0 mph 67% 0.00 in
21:59 30.2 °F 20.2 °F 30.04 in West 8.0 mph 14.0 mph 66% 0.00 in
22:04 30.1 °F 20.1 °F 30.04 in West 5.0 mph 13.0 mph 66% 0.00 in
22:09 30.0 °F 20.0 °F 30.05 in NW 4.0 mph 10.0 mph 66% 0.00 in
22:14 29.8 °F 19.5 °F 30.05 in West 7.0 mph 11.0 mph 65% 0.00 in
22:19 29.7 °F 19.0 °F 30.05 in WNW 6.0 mph 11.0 mph 64% 0.00 in
22:24 29.6 °F 18.9 °F 30.05 in WNW 6.0 mph 10.0 mph 64% 0.00 in
22:29 29.6 °F 18.5 °F 30.05 in WNW 6.0 mph 15.0 mph 63% 0.00 in
22:34 29.6 °F 18.9 °F 30.05 in WNW 6.0 mph 15.0 mph 64% 0.00 in
22:39 29.3 °F 19.0 °F 30.05 in WNW 5.0 mph 10.0 mph 65% 0.00 in
22:44 29.2 °F 19.2 °F 30.05 in West 9.0 mph 10.0 mph 66% 0.00 in
22:49 29.3 °F 19.3 °F 30.06 in WNW 5.0 mph 10.0 mph 66% 0.00 in
22:54 29.2 °F 19.6 °F 30.05 in WNW 5.0 mph 10.0 mph 67% 0.00 in
22:59 29.3 °F 19.7 °F 30.05 in WNW 5.0 mph 9.0 mph 67% 0.00 in
23:04 29.1 °F 19.5 °F 30.05 in West 9.0 mph 11.0 mph 67% 0.00 in
23:09 29.0 °F 19.4 °F 30.05 in West 4.0 mph 12.0 mph 67% 0.00 in
23:14 28.9 °F 19.3 °F 30.06 in West 4.0 mph 9.0 mph 67% 0.00 in
23:19 28.9 °F 19.3 °F 30.06 in West 6.0 mph 12.0 mph 67% 0.00 in
23:24 28.9 °F 19.3 °F 30.06 in West 5.0 mph 12.0 mph 67% 0.00 in
23:29 28.9 °F 19.3 °F 30.06 in West 5.0 mph 11.0 mph 67% 0.00 in
23:34 28.8 °F 19.2 °F 30.07 in West 6.0 mph 11.0 mph 67% 0.00 in
23:39 28.7 °F 19.5 °F 30.07 in West 5.0 mph 10.0 mph 68% 0.00 in
23:44 28.5 °F 19.3 °F 30.06 in West 5.0 mph 10.0 mph 68% 0.00 in
23:49 28.5 °F 19.3 °F 30.07 in West 8.0 mph 10.0 mph 68% 0.00 in
23:54 28.4 °F 19.2 °F 30.07 in West 5.0 mph 11.0 mph 68% 0.00 in
23:59 28.4 °F 19.5 °F 30.07 in WNW 7.0 mph 9.0 mph 69% 0.00 in
Buffalo, New York, USA
Compliments of Weather Underground - 2.5 mb